Regional Weather Roundup
Issued by NWS

Home | Current Version | Previous Version | Graphics & Text | Print | Product List | Glossary On
Versions: 1 2 3 4 5 6 7 8 9 10 11 12 13 14 15 16 17 18 19 20 21 22 23 24 25 26 27 28 29 30 31 32 33 34 35 36 37 38 39 40 41 42 43 44 45 46 47 48 49 50
948
ASUS44 KJAN 300710
RWRMS

MISSISSIPPI HOURLY WEATHER ROUNDUP
NATIONAL WEATHER SERVICE JACKSON MS
200 AM CDT THU OCT 30 2014

NOTE: "FAIR: INDICATES FEW OR NO CLOUDS BELOW 12,000 FEET WITH NO
SIGNIFICANT WEATHER AND/OR OBSTRUCTIONS TO VISIBILITY.

MSZ001>002-007>008-010>013-018>021-025>028-034>036-300800-
NORTHWEST MISSISSIPPI

CITY           SKY/WX    TMP DP  RH WIND       PRES   REMARKS
CLARKSDALE     FAIR      48  48 100 CALM      30.15S
CLEVELAND      FAIR      48  47  99 CALM      30.13F
GREENWOOD      CLEAR     44  42  93 NE3       30.13F
GREENVILLE     CLEAR     48  46  93 CALM      30.13F
GRENADA        FAIR      43  43 100 CALM      30.14F
OLIVE BRANCH   CLEAR     45  45 100 CALM      30.15S
OXFORD         FAIR      41  41 100 CALM      30.15S
TUNICA         SUNNY     45  45 100 N6        30.16R FOG
$$

MSZ003>006-009-014>017-022>024-029>033-037>039-300800-
NORTHEAST MISSISSIPPI

CITY           SKY/WX    TMP DP  RH WIND       PRES   REMARKS
COLUMBUS AFB   CLEAR     43  42  96 CALM      30.12F
CORINTH        FAIR      43  41  93 CALM      30.13S FOG
GOLDN TRIANGLE CLEAR    N/A N/A N/A CALM      30.12S
STARKVILLE     FAIR      43  43 100 CALM      30.13S
TUPELO         CLEAR     46  43  89 CALM      30.12F
$$

MSZ040-058-300800-
CENTRAL MISSISSIPPI

CITY           SKY/WX    TMP DP  RH WIND       PRES   REMARKS
JACKSON INTL   CLEAR     46  43  89 CALM      30.12F
JACKSON HAWKNS CLEAR     52  44  74 NE3       30.13S
MERIDIAN KEY   CLEAR     44  42  93 CALM      30.12S
MERIDIAN NAS   CLEAR     44  42  93 CALM      30.12S
RAYMOND        HAZE      45  39  81 CALM      30.13S VSB 1/2
VICKSBURG      CLEAR     44  43  96 CALM      30.13F
$$

MSZ059>079-300800-
SOUTH MISSISSIPPI

CITY           SKY/WX    TMP DP  RH WIND       PRES   REMARKS
BROOKHAVEN     FAIR      48  46  93 CALM      30.14S
COLUMBIA         N/A     48  48 100 MISG      30.10S
HATTIESBURG    CLOUDY    53  50  89 NW3       30.11F
MCCOMB         CLEAR     56  46  69 N7        30.11S
NATCHEZ        CLEAR     48  45  87 CALM      30.12F
PINE BELT      PTCLDY    52  45  76 MISG      30.11F
$$

MSZ080>082-300800-
COASTAL MISSISSIPPI

CITY           SKY/WX    TMP DP  RH WIND       PRES   REMARKS
BILOXI         PTCLDY    63  55  76 NE13      30.06S
PASCAGOULA     CLOUDY    62  57  83 N10       30.06F
GULFPORT       CLEAR     63  52  67 N9        30.06S
$$



USA.gov is the U.S. government's official web portal to all federal, state and local government web resources and services.